Regional Weather Roundup
Issued by NWS New Orleans/Baton Rouge, LA

Home | Current Version | Previous Version | Graphics & Text | Print | Product List | Glossary On
Versions: 1 2 3 4 5 6 7 8 9 10 11 12 13 14 15 16 17 18 19 20 21 22 23 24 25 26 27 28 29 30 31 32 33 34 35 36 37 38 39 40 41 42 43 44 45 46 47 48 49 50
832
ASUS44 KLIX 011205
RWRLIX
NEW ORLEANS REGIONAL WEATHER ROUNDUP
NATIONAL WEATHER SERVICE NEW ORLEANS LA
700 AM CDT FRI AUG 01 2014

NOTE: "FAIR" INDICATES FEW OR NO CLOUDS BELOW 12,000 FEET WITH NO
      SIGNIFICANT WEATHER AND/OR OBSTRUCTIONS TO VISIBILITY.
      SKY/WX - SKY CONDITION AND SIGNIFICANT WEATHER.
      TMP - AIR TEMPERATURE.     DP    - DEWPOINT TEMPERATURE.
      RH  - RELATIVE HUMIDITY.   PRES  - PRESSURE.
      HI  - HEAT INDEX.          WCI   - WIND CHILL INDEX.

*  THESE STATIONS ARE NOT NWS OR FAA STATIONS AND ARE NOT UNDER
   NWS QUALITY CONTROL.

LAZ038-040-048-061>063-065>067-069-011300-
SOUTHEAST LOUISIANA

CITY           SKY/WX    TMP DP  RH WIND       PRES   REMARKS
N.O. AUDUBON     N/A     79  71  77 MISG        N/A
6HR MIN TEMP:  78; 6HR MAX TEMP:  82;

N.O. INTL ARPT CLOUDY    78  69  73 CALM      29.98S
6HR MIN TEMP:  77; 6HR MAX TEMP:  80;

N.O. LAKEFRONT CLOUDY    80  70  71 E8        30.00R
6HR MIN TEMP:  80; 6HR MAX TEMP:  81;

N.O. DOWNTOWN*   N/A     81  66  61 NE6       30.00S
6HR MIN TEMP:  81; 6HR MAX TEMP:  82;

SLIDELL        CLOUDY    73  68  84 CALM      30.00R
6HR MIN TEMP:  72; 6HR MAX TEMP:  75;

BATON ROUGE    CLOUDY    72  67  84 NE6       29.99R
6HR MIN TEMP:  72; 6HR MAX TEMP:  76;

BOOTHVILLE     CLOUDY    78  68  71 CALM      30.00R
6HR MIN TEMP:  77; 6HR MAX TEMP:  79;

BELLE CHASSE   NOT AVBL
BOGALUSA*      CLOUDY    73  68  86 CALM      30.03R
6HR MIN TEMP:  72; 6HR MAX TEMP:  73;

GALLIANO*      NOT AVBL
NEW ROADS*     CLOUDY    74  68  80 MISG      29.99R
6HR MIN TEMP:  73; 6HR MAX TEMP:  76;

GONZALES*        N/A     74  74 100 MISG      29.98S
6HR MIN TEMP:  72; 6HR MAX TEMP:  76;

HAMMOND*       CLOUDY    73  66  78 CALM      30.02S
HOUMA*         PTCLDY    77  70  78 CALM      29.99R
PORT FOURCHON* SUNNY     82  66  57 SE5       30.00R

$$

MSZ070-080>082-011300-
SOUTHERN MISSISSIPPI

CITY           SKY/WX    TMP DP  RH WIND       PRES   REMARKS
MCCOMB         CLOUDY    71  66  84 E5        30.01S
6HR MIN TEMP:  70; 6HR MAX TEMP:  73; 6HR PCP: TRACE;

GULFPORT       CLOUDY    77  66  68 NW3       30.00R
6HR MIN TEMP:  77; 6HR MAX TEMP:  79;

BILOXI         CLOUDY    74  66  75 NE7       29.99R
6HR MIN TEMP:  73; 6HR MAX TEMP:  76;

PASCAGOULA     CLOUDY    71  69  93 CALM      29.99R
6HR MIN TEMP:  68; 6HR MAX TEMP:  71;

STENNIS ARPT*  MOCLDY   N/A N/A N/A CALM      30.00

$$

COASTAL OBSERVATIONS
LAKE AND NEARSHORE STATIONS

STATION/POSITION TIME  TEMP    WIND        PRES    WAVE
                       AIR SEA DIR/SP/G            HT/PER
                 (UTC) (F)     (DEG/KT/KT) (MB)    (FT/S)
PASCAGOULA       1200   74      20/  6/  7 1015.0
WAVELAND YACHT   1200   76      50/  5/  8 1015.3
GRAND ISLE       1200   81 86  110/  2/  3 1016.0
SOUTHWEST PASS   1200   81 85   60/  3/  4 1015.6
NEW CANAL        1200   80 83   90/  1/  2 1016.1
SHELL BEACH      1200   80 81   60/  6/  8 1015.4

OFFSHORE STATIONS

STATION/POSITION TIME  TEMP    WIND        PRES    WAVE
                       AIR SEA DIR/SP/G            HT/PER
                 (UTC) (F)     (DEG/KT/KT) (MB)    (FT/S)
64 S DAUPHIN ISL 1051   81 84   CALM  /  2 1015.3

$$




USA.gov is the U.S. government's official web portal to all federal, state and local government web resources and services.